Location: Unspecified
(0.0000°N, 0.0000°E)
Time: 00:53:39
(UTC+00:00)

CZ-3C DEB (VEB) - Pass Details

Date: 07 March 2026
Orbit: 223 x 25499 km, 21.0° (Epoch: 14 April)

Event Time Altitude Azimuth Distance (km) Brightness Sun altitude
Rises 02:29:31 0° 293° (WNW) 12,658 ? -55.0°
Enters shadow 02:37:32 - 295° (WNW) 13,584 ? -53.1°
Exits shadow 03:15:37 33° 300° (WNW) 18,581 ? -43.6°
Maximum altitude 08:44:32 59° 212° (SSW) 6,887 ? 38.2°
Drops below altitude 10° 09:02:41 10° 131° (SE) 4,662 ? 42.7°
Sets 09:04:45 0° 125° (SE) 4,992 ? 43.2°
